Location: Piolenc
(44.1794°N, 4.7641°E)
Time: 03:57:51
(UTC+00:00)

Cosmos 2369 Rocket - Pass Details

Date: 27 January 2021
Orbit: 830 x 851 km, 71.0° (Epoch: 27 February)

Event Time Altitude Azimuth Distance (km) Brightness Sun altitude
Exits shadow 05:00:23 - 346° (NNW) 2,843 4.8 -22.1°
Reaches altitude 10° 05:01:33 10° 351° (N) 2,450 4.5 -21.9°
Maximum altitude 05:06:34 32° 54° (NE) 1,389 3.7 -21.0°
Drops below altitude 10° 05:11:32 10° 117° (ESE) 2,433 5.6 -20.1°
Sets 05:14:12 0° 127° (SE) 3,363 6.3 -19.7°
